Time,TemperatureF,DewpointF,PressureIn,WindDirection,WindDirectionDegrees,WindSpeedMPH,WindSpeedGustMPH,Humidity,HourlyPrecipIn,Conditions,Clouds,dailyrainin,SoftwareType,DateUTC
2013-11-20 00:01:00,37.0,26.0,30.07,ESE,108,2.0,6.0,64,0.00,,---,0.15,VWS V14.01,2013-11-20 08:01:00,
2013-11-20 00:06:00,37.0,26.3,30.08,East,82,2.0,11.0,65,0.00,,---,0.00,VWS V14.01,2013-11-20 08:06:00,
2013-11-20 00:11:00,36.9,26.2,30.08,SE,124,2.0,6.0,65,0.00,,---,0.00,VWS V14.01,2013-11-20 08:11:00,
2013-11-20 00:16:00,36.8,26.5,30.08,West,278,1.0,4.0,66,0.00,,---,0.00,VWS V14.01,2013-11-20 08:16:00,
2013-11-20 00:21:00,36.5,26.6,30.09,ENE,69,1.0,5.0,67,0.00,,---,0.00,VWS V14.01,2013-11-20 08:21:00,
2013-11-20 00:26:00,36.4,26.5,30.09,West,261,0.0,4.0,67,0.00,,---,0.00,VWS V14.01,2013-11-20 08:26:00,
2013-11-20 00:31:00,36.2,26.7,30.09,ENE,70,3.0,3.0,68,0.00,,---,0.00,VWS V14.01,2013-11-20 08:31:00,
2013-11-20 00:36:00,36.1,26.6,30.09,NE,55,3.0,4.0,68,0.00,,---,0.00,VWS V14.01,2013-11-20 08:36:00,
2013-11-20 00:41:00,36.1,26.6,30.10,West,272,1.0,4.0,68,0.00,,---,0.00,VWS V14.01,2013-11-20 08:41:00,
2013-11-20 00:46:00,36.0,26.5,30.10,NE,39,3.0,4.0,68,0.00,,---,0.00,VWS V14.01,2013-11-20 08:46:00,
2013-11-20 00:51:00,35.9,26.4,30.10,NE,53,2.0,5.0,68,0.00,,---,0.00,VWS V14.01,2013-11-20 08:51:00,
2013-11-20 00:56:00,35.9,26.4,30.10,East,80,0.0,5.0,68,0.00,,---,0.00,VWS V14.01,2013-11-20 08:56:00,
2013-11-20 01:01:00,35.8,26.6,30.10,ENE,69,3.0,3.0,69,0.00,,---,0.00,VWS V14.01,2013-11-20 09:01:00,
2013-11-20 01:06:00,35.7,26.5,30.10,East,90,1.0,3.0,69,0.00,,---,0.00,VWS V14.01,2013-11-20 09:06:00,
2013-11-20 01:11:00,35.7,26.9,30.10,ENE,65,0.0,3.0,70,0.00,,---,0.00,VWS V14.01,2013-11-20 09:11:00,
2013-11-20 01:16:00,35.6,26.8,30.11,NE,50,2.0,3.0,70,0.00,,---,0.00,VWS V14.01,2013-11-20 09:16:00,
2013-11-20 01:21:00,35.6,26.8,30.11,East,88,1.0,3.0,70,0.00,,---,0.00,VWS V14.01,2013-11-20 09:21:00,
2013-11-20 01:26:00,35.5,26.7,30.11,NE,47,3.0,3.0,70,0.00,,---,0.00,VWS V14.01,2013-11-20 09:26:00,
2013-11-20 01:31:00,35.6,27.1,30.11,NNE,30,2.0,3.0,71,0.00,,---,0.00,VWS V14.01,2013-11-20 09:31:00,
2013-11-20 01:36:00,35.6,27.1,30.11,NE,37,2.0,4.0,71,0.00,,---,0.00,VWS V14.01,2013-11-20 09:36:00,
2013-11-20 01:41:00,35.5,27.4,30.11,North,6,1.0,4.0,72,0.00,,---,0.00,VWS V14.01,2013-11-20 09:41:00,
2013-11-20 01:46:00,35.4,27.3,30.11,NE,34,1.0,3.0,72,0.00,,---,0.00,VWS V14.01,2013-11-20 09:46:00,
2013-11-20 01:51:00,35.3,27.5,30.11,NE,45,1.0,3.0,73,0.00,,---,0.00,VWS V14.01,2013-11-20 09:51:00,
2013-11-20 01:56:00,35.6,27.8,30.11,NE,53,2.0,4.0,73,0.00,,---,0.00,VWS V14.01,2013-11-20 09:56:00,
2013-11-20 02:01:00,35.8,28.0,30.12,East,85,2.0,5.0,73,0.00,,---,0.00,VWS V14.01,2013-11-20 10:01:00,
2013-11-20 02:06:00,35.7,27.9,30.12,NE,37,0.0,2.0,73,0.00,,---,0.00,VWS V14.01,2013-11-20 10:06:00,
2013-11-20 02:11:00,35.8,28.3,30.12,ESE,114,0.0,3.0,74,0.00,,---,0.00,VWS V14.01,2013-11-20 10:11:00,
2013-11-20 02:16:00,35.9,28.4,30.12,ENE,75,0.0,4.0,74,0.00,,---,0.00,VWS V14.01,2013-11-20 10:16:00,
2013-11-20 02:21:00,36.1,28.6,30.12,North,1,0.0,3.0,74,0.00,,---,0.00,VWS V14.01,2013-11-20 10:21:00,
2013-11-20 02:26:00,36.3,29.1,30.13,WSW,251,1.0,2.0,75,0.00,,---,0.00,VWS V14.01,2013-11-20 10:26:00,
2013-11-20 02:31:00,36.7,29.5,30.13,NW,313,2.0,10.0,75,0.00,,---,0.00,VWS V14.01,2013-11-20 10:31:00,
2013-11-20 02:36:00,37.1,29.6,30.13,WNW,287,3.0,6.0,74,0.00,,---,0.00,VWS V14.01,2013-11-20 10:36:00,
2013-11-20 02:41:00,37.3,29.8,30.14,NW,315,5.0,8.0,74,0.00,,---,0.00,VWS V14.01,2013-11-20 10:41:00,
2013-11-20 02:46:00,37.5,29.3,30.14,NW,311,8.0,11.0,72,0.00,,---,0.00,VWS V14.01,2013-11-20 10:46:00,
2013-11-20 02:51:00,37.5,28.6,30.14,NW,314,5.0,12.0,70,0.00,,---,0.00,VWS V14.01,2013-11-20 10:51:00,
2013-11-20 02:56:00,37.5,29.0,30.14,NW,309,4.0,10.0,71,0.00,,---,0.00,VWS V14.01,2013-11-20 10:56:00,
2013-11-20 03:01:00,37.5,29.0,30.14,WNW,290,7.0,16.0,71,0.00,,---,0.00,VWS V14.01,2013-11-20 11:01:00,
2013-11-20 03:06:00,37.5,29.0,30.14,NW,304,1.0,10.0,71,0.00,,---,0.00,VWS V14.01,2013-11-20 11:06:00,
2013-11-20 03:11:00,37.6,29.4,30.15,NNW,333,3.0,13.0,72,0.00,,---,0.00,VWS V14.01,2013-11-20 11:11:00,
2013-11-20 03:16:00,37.5,29.3,30.14,NW,314,3.0,10.0,72,0.00,,---,0.00,VWS V14.01,2013-11-20 11:16:00,
2013-11-20 03:21:00,37.7,30.2,30.15,WNW,284,13.0,13.0,74,0.00,,---,0.00,VWS V14.01,2013-11-20 11:21:00,
2013-11-20 03:26:00,37.8,30.3,30.15,WNW,295,10.0,13.0,74,0.00,,---,0.00,VWS V14.01,2013-11-20 11:26:00,
2013-11-20 03:31:00,38.0,30.8,30.15,NW,319,13.0,16.0,75,0.00,,---,0.00,VWS V14.01,2013-11-20 11:31:00,
2013-11-20 03:36:00,38.3,30.8,30.15,West,269,9.0,17.0,74,0.00,,---,0.00,VWS V14.01,2013-11-20 11:36:00,
2013-11-20 03:41:00,38.4,31.2,30.16,WNW,302,3.0,17.0,75,0.00,,---,0.00,VWS V14.01,2013-11-20 11:41:00,
2013-11-20 03:46:00,38.5,31.3,30.16,NW,322,4.0,12.0,75,0.00,,---,0.00,VWS V14.01,2013-11-20 11:46:00,
2013-11-20 03:51:00,38.5,31.6,30.16,NW,311,6.0,6.0,76,0.00,,---,0.00,VWS V14.01,2013-11-20 11:51:00,
2013-11-20 03:56:00,38.4,31.2,30.17,NNW,330,5.0,9.0,75,0.00,,---,0.00,VWS V14.01,2013-11-20 11:56:00,
2013-11-20 04:01:00,38.3,30.8,30.17,NE,56,9.0,9.0,74,0.00,,---,0.00,VWS V14.01,2013-11-20 12:01:00,
2013-11-20 04:06:00,38.1,30.6,30.17,NE,55,2.0,7.0,74,0.00,,---,0.00,VWS V14.01,2013-11-20 12:06:00,
2013-11-20 04:11:00,38.0,30.5,30.17,North,355,3.0,8.0,74,0.00,,---,0.00,VWS V14.01,2013-11-20 12:11:00,
2013-11-20 04:16:00,37.9,30.0,30.18,South,183,2.0,6.0,73,0.00,,---,0.00,VWS V14.01,2013-11-20 12:16:00,
2013-11-20 04:21:00,37.9,30.0,30.18,ENE,72,1.0,9.0,73,0.00,,---,0.00,VWS V14.01,2013-11-20 12:21:00,
2013-11-20 04:26:00,37.9,30.4,30.18,NW,318,4.0,8.0,74,0.00,,---,0.00,VWS V14.01,2013-11-20 12:26:00,
2013-11-20 04:31:00,37.7,30.5,30.19,NE,39,2.0,11.0,75,0.00,,---,0.00,VWS V14.01,2013-11-20 12:31:00,
2013-11-20 04:36:00,37.5,30.6,30.19,SE,136,3.0,6.0,76,0.00,,---,0.00,VWS V14.01,2013-11-20 12:36:00,
2013-11-20 04:41:00,37.2,30.7,30.20,NE,56,3.0,6.0,77,0.00,,---,0.00,VWS V14.01,2013-11-20 12:41:00,
2013-11-20 04:46:00,36.9,30.4,30.20,NNE,23,4.0,11.0,77,0.00,,---,0.00,VWS V14.01,2013-11-20 12:46:00,
2013-11-20 04:51:00,36.7,30.5,30.20,ESE,117,4.0,9.0,78,0.00,,---,0.00,VWS V14.01,2013-11-20 12:51:00,
2013-11-20 04:56:00,36.5,30.6,30.20,NNE,32,2.0,8.0,79,0.00,,---,0.00,VWS V14.01,2013-11-20 12:56:00,
2013-11-20 05:01:00,36.2,30.6,30.20,NNE,25,1.0,6.0,80,0.00,,---,0.00,VWS V14.01,2013-11-20 13:01:00,
2013-11-20 05:06:00,36.0,30.4,30.20,NNW,338,3.0,6.0,80,0.00,,---,0.00,VWS V14.01,2013-11-20 13:06:00,
2013-11-20 05:11:00,35.9,30.6,30.21,NE,52,3.0,6.0,81,0.00,,---,0.00,VWS V14.01,2013-11-20 13:11:00,
2013-11-20 05:16:00,35.7,30.5,30.21,NE,56,5.0,6.0,81,0.00,,---,0.00,VWS V14.01,2013-11-20 13:16:00,
2013-11-20 05:21:00,35.6,30.4,30.21,NE,45,3.0,7.0,81,0.00,,---,0.00,VWS V14.01,2013-11-20 13:21:00,
2013-11-20 05:26:00,35.5,30.3,30.21,NE,54,3.0,4.0,81,0.00,,---,0.00,VWS V14.01,2013-11-20 13:26:00,
2013-11-20 05:31:00,35.3,30.1,30.22,East,94,2.0,5.0,81,0.00,,---,0.00,VWS V14.01,2013-11-20 13:31:00,
2013-11-20 05:36:00,35.2,30.3,30.22,East,93,1.0,4.0,82,0.00,,---,0.00,VWS V14.01,2013-11-20 13:36:00,
2013-11-20 05:41:00,35.0,30.1,30.22,East,91,2.0,3.0,82,0.00,,---,0.00,VWS V14.01,2013-11-20 13:41:00,
2013-11-20 05:46:00,34.8,29.9,30.22,ENE,60,2.0,4.0,82,0.00,,---,0.00,VWS V14.01,2013-11-20 13:46:00,
2013-11-20 05:51:00,34.7,29.8,30.22,East,92,2.0,3.0,82,0.00,,---,0.00,VWS V14.01,2013-11-20 13:51:00,
2013-11-20 05:56:00,34.6,29.7,30.23,NNE,29,2.0,6.0,82,0.00,,---,0.00,VWS V14.01,2013-11-20 13:56:00,
2013-11-20 06:01:00,34.6,29.4,30.23,NE,54,1.0,4.0,81,0.00,,---,0.00,VWS V14.01,2013-11-20 14:01:00,
2013-11-20 06:06:00,34.5,29.6,30.23,NNE,22,5.0,5.0,82,0.00,,---,0.00,VWS V14.01,2013-11-20 14:06:00,
2013-11-20 06:11:00,34.5,29.3,30.23,NNE,16,0.0,3.0,81,0.00,,---,0.00,VWS V14.01,2013-11-20 14:11:00,
2013-11-20 06:16:00,34.3,29.1,30.24,NE,35,2.0,3.0,81,0.00,,---,0.00,VWS V14.01,2013-11-20 14:16:00,
2013-11-20 06:21:00,34.3,29.4,30.24,NE,51,2.0,4.0,82,0.00,,---,0.00,VWS V14.01,2013-11-20 14:21:00,
2013-11-20 06:26:00,34.1,29.2,30.24,ENE,66,1.0,3.0,82,0.00,,---,0.00,VWS V14.01,2013-11-20 14:26:00,
2013-11-20 06:31:00,34.1,29.2,30.25,NE,53,1.0,4.0,82,0.00,,---,0.00,VWS V14.01,2013-11-20 14:31:00,
2013-11-20 06:36:00,34.1,29.2,30.25,ENE,64,2.0,5.0,82,0.00,,---,0.00,VWS V14.01,2013-11-20 14:36:00,
2013-11-20 06:41:00,34.0,29.1,30.25,ENE,71,2.0,7.0,82,0.00,,---,0.00,VWS V14.01,2013-11-20 14:41:00,
2013-11-20 06:46:00,33.9,29.3,30.25,North,349,2.0,5.0,83,0.00,,---,0.00,VWS V14.01,2013-11-20 14:46:00,
2013-11-20 06:51:00,33.9,29.0,30.25,NNW,328,1.0,6.0,82,0.00,,---,0.00,VWS V14.01,2013-11-20 14:51:00,
2013-11-20 06:56:00,33.9,29.0,30.26,NE,49,0.0,5.0,82,0.00,,---,0.00,VWS V14.01,2013-11-20 14:56:00,
2013-11-20 07:01:00,33.9,29.0,30.26,ENE,57,1.0,6.0,82,0.00,,---,0.00,VWS V14.01,2013-11-20 15:01:00,
2013-11-20 07:06:00,33.9,28.7,30.26,North,11,4.0,5.0,81,0.00,,---,0.00,VWS V14.01,2013-11-20 15:06:00,
2013-11-20 07:11:00,33.9,28.4,30.26,North,10,4.0,4.0,80,0.00,,---,0.00,VWS V14.01,2013-11-20 15:11:00,
2013-11-20 07:16:00,34.0,28.2,30.27,NE,51,0.0,3.0,79,0.00,,---,0.00,VWS V14.01,2013-11-20 15:16:00,
2013-11-20 07:21:00,34.1,28.3,30.27,NE,54,0.0,3.0,79,0.00,,---,0.00,VWS V14.01,2013-11-20 15:21:00,
2013-11-20 07:26:00,34.1,28.6,30.27,ENE,72,1.0,3.0,80,0.00,,---,0.00,VWS V14.01,2013-11-20 15:26:00,
2013-11-20 07:31:00,33.8,28.9,30.27,East,85,2.0,2.0,82,0.00,,---,0.00,VWS V14.01,2013-11-20 15:31:00,
2013-11-20 07:36:00,33.8,29.2,30.27,NE,42,1.0,3.0,83,0.00,,---,0.00,VWS V14.01,2013-11-20 15:36:00,
2013-11-20 07:41:00,33.7,28.8,30.28,East,86,3.0,4.0,82,0.00,,---,0.00,VWS V14.01,2013-11-20 15:41:00,
2013-11-20 07:46:00,33.7,28.8,30.28,NW,326,2.0,7.0,82,0.00,,---,0.00,VWS V14.01,2013-11-20 15:46:00,
2013-11-20 07:51:00,33.7,29.1,30.28,North,11,2.0,3.0,83,0.00,,---,0.00,VWS V14.01,2013-11-20 15:51:00,
2013-11-20 07:56:00,33.9,29.6,30.29,NE,46,1.0,2.0,84,0.00,,---,0.00,VWS V14.01,2013-11-20 15:56:00,
2013-11-20 08:01:00,33.9,29.3,30.29,ENE,67,2.0,3.0,83,0.00,,---,0.00,VWS V14.01,2013-11-20 16:01:00,
2013-11-20 08:06:00,34.0,28.8,30.28,NE,45,2.0,3.0,81,0.00,,---,0.00,VWS V14.01,2013-11-20 16:06:00,
2013-11-20 08:11:00,34.0,28.5,30.29,East,82,0.0,3.0,80,0.00,,---,0.00,VWS V14.01,2013-11-20 16:11:00,
2013-11-20 08:16:00,34.1,28.3,30.29,East,88,1.0,3.0,79,0.00,,---,0.00,VWS V14.01,2013-11-20 16:16:00,
2013-11-20 08:21:00,34.3,28.2,30.29,NE,37,2.0,4.0,78,0.00,,---,0.00,VWS V14.01,2013-11-20 16:21:00,
2013-11-20 08:26:00,34.6,28.1,30.29,NNE,30,3.0,4.0,77,0.00,,---,0.00,VWS V14.01,2013-11-20 16:26:00,
2013-11-20 08:30:00,34.8,28.0,30.30,NE,46,3.0,3.0,76,0.00,,---,0.00,VWS V14.01,2013-11-20 16:30:00,
2013-11-20 08:35:00,35.1,27.7,30.30,NE,56,2.0,3.0,74,0.00,,---,0.00,VWS V14.01,2013-11-20 16:35:00,
2013-11-20 08:40:00,35.2,27.4,30.30,NE,47,1.0,5.0,73,0.00,,---,0.00,VWS V14.01,2013-11-20 16:40:00,
2013-11-20 08:45:00,35.5,27.7,30.31,ESE,106,1.0,4.0,73,0.00,,---,0.00,VWS V14.01,2013-11-20 16:45:00,
2013-11-20 08:50:00,35.7,27.6,30.31,East,89,2.0,4.0,72,0.00,,---,0.00,VWS V14.01,2013-11-20 16:50:00,
2013-11-20 08:55:00,35.8,28.0,30.31,ENE,74,1.0,6.0,73,0.00,,---,0.00,VWS V14.01,2013-11-20 16:55:00,
2013-11-20 09:00:00,36.1,28.0,30.31,East,83,1.0,6.0,72,0.00,,---,0.00,VWS V14.01,2013-11-20 17:00:00,
2013-11-20 09:05:00,36.4,27.9,30.31,ESE,103,2.0,6.0,71,0.00,,---,0.00,VWS V14.01,2013-11-20 17:05:00,
2013-11-20 09:10:00,36.6,27.8,30.31,East,82,1.0,6.0,70,0.00,,---,0.00,VWS V14.01,2013-11-20 17:10:00,
2013-11-20 09:15:00,36.8,27.6,30.31,ENE,70,3.0,6.0,69,0.00,,---,0.00,VWS V14.01,2013-11-20 17:15:00,
2013-11-20 09:20:00,36.9,27.7,30.32,North,359,1.0,8.0,69,0.00,,---,0.00,VWS V14.01,2013-11-20 17:20:00,
2013-11-20 09:25:00,37.2,27.6,30.32,ENE,60,2.0,5.0,68,0.00,,---,0.00,VWS V14.01,2013-11-20 17:25:00,
2013-11-20 09:30:00,37.5,27.5,30.32,NE,48,1.0,5.0,67,0.00,,---,0.00,VWS V14.01,2013-11-20 17:30:00,
2013-11-20 09:35:00,37.9,27.6,30.32,NNW,342,1.0,4.0,66,0.00,,---,0.00,VWS V14.01,2013-11-20 17:35:00,
2013-11-20 09:40:00,38.1,27.0,30.32,NW,324,1.0,7.0,64,0.00,,---,0.00,VWS V14.01,2013-11-20 17:40:00,
2013-11-20 09:45:00,38.3,26.8,30.33,NW,314,0.0,5.0,63,0.00,,---,0.00,VWS V14.01,2013-11-20 17:45:00,
2013-11-20 09:50:00,38.6,26.7,30.33,NNW,331,3.0,7.0,62,0.00,,---,0.00,VWS V14.01,2013-11-20 17:50:00,
2013-11-20 09:55:00,38.9,27.0,30.33,North,4,2.0,5.0,62,0.00,,---,0.00,VWS V14.01,2013-11-20 17:55:00,
2013-11-20 10:00:00,39.1,26.4,30.33,WNW,302,2.0,6.0,60,0.00,,---,0.00,VWS V14.01,2013-11-20 18:00:00,
2013-11-20 10:05:00,39.3,26.6,30.33,NNW,327,2.0,3.0,60,0.00,,---,0.00,VWS V14.01,2013-11-20 18:05:00,
2013-11-20 10:10:00,39.4,26.7,30.33,North,6,2.0,4.0,60,0.00,,---,0.00,VWS V14.01,2013-11-20 18:10:00,
2013-11-20 10:15:00,39.6,26.1,30.33,NNE,27,8.0,8.0,58,0.00,,---,0.00,VWS V14.01,2013-11-20 18:15:00,
2013-11-20 10:20:00,39.5,26.0,30.33,WNW,290,5.0,10.0,58,0.00,,---,0.00,VWS V14.01,2013-11-20 18:20:00,
2013-11-20 10:25:00,39.6,26.1,30.33,NW,320,2.0,8.0,58,0.00,,---,0.00,VWS V14.01,2013-11-20 18:25:00,
2013-11-20 10:30:00,39.7,25.7,30.33,West,281,4.0,9.0,57,0.00,,---,0.00,VWS V14.01,2013-11-20 18:30:00,
2013-11-20 10:35:00,39.8,25.4,30.34,NNW,328,4.0,8.0,56,0.00,,---,0.00,VWS V14.01,2013-11-20 18:35:00,
2013-11-20 10:40:00,39.8,25.4,30.34,NNW,328,3.0,11.0,56,0.00,,---,0.00,VWS V14.01,2013-11-20 18:40:00,
2013-11-20 10:45:00,40.0,26.0,30.34,NW,314,3.0,6.0,57,0.00,,---,0.00,VWS V14.01,2013-11-20 18:45:00,
2013-11-20 10:50:00,40.3,25.9,30.34,NE,51,2.0,6.0,56,0.00,,---,0.00,VWS V14.01,2013-11-20 18:50:00,
2013-11-20 10:55:00,40.7,26.7,30.34,NW,304,2.0,4.0,57,0.00,,---,0.00,VWS V14.01,2013-11-20 18:55:00,
2013-11-20 11:00:00,40.5,26.0,30.34,NNE,31,3.0,8.0,56,0.00,,---,0.00,VWS V14.01,2013-11-20 19:00:00,
2013-11-20 11:05:00,40.5,26.5,30.34,North,354,1.0,4.0,57,0.00,,---,0.00,VWS V14.01,2013-11-20 19:05:00,
2013-11-20 11:10:00,40.4,26.8,30.34,NW,309,3.0,10.0,58,0.00,,---,0.00,VWS V14.01,2013-11-20 19:10:00,
2013-11-20 11:15:00,40.4,26.4,30.34,NW,309,4.0,14.0,57,0.00,,---,0.00,VWS V14.01,2013-11-20 19:15:00,
2013-11-20 11:20:00,40.3,26.7,30.34,NW,307,4.0,8.0,58,0.00,,---,0.00,VWS V14.01,2013-11-20 19:20:00,
2013-11-20 11:25:00,40.3,26.7,30.34,NW,319,7.0,11.0,58,0.00,,---,0.00,VWS V14.01,2013-11-20 19:25:00,
2013-11-20 11:30:00,40.1,25.7,30.34,WNW,302,6.0,14.0,56,0.00,,---,0.00,VWS V14.01,2013-11-20 19:30:00,
2013-11-20 11:35:00,40.4,26.0,30.34,NNW,331,2.0,7.0,56,0.00,,---,0.00,VWS V14.01,2013-11-20 19:35:00,
2013-11-20 11:40:00,40.6,26.6,30.33,NW,313,6.0,8.0,57,0.00,,---,0.00,VWS V14.01,2013-11-20 19:40:00,
2013-11-20 11:45:00,40.6,26.6,30.34,NNW,337,4.0,9.0,57,0.00,,---,0.00,VWS V14.01,2013-11-20 19:45:00,
2013-11-20 11:50:00,40.5,26.9,30.34,NW,326,3.0,10.0,58,0.00,,---,0.00,VWS V14.01,2013-11-20 19:50:00,
2013-11-20 11:55:00,40.9,27.3,30.33,NNE,29,2.0,9.0,58,0.00,,---,0.00,VWS V14.01,2013-11-20 19:55:00,
2013-11-20 12:00:00,41.0,26.1,30.33,NNW,344,7.0,11.0,55,0.00,,---,0.00,VWS V14.01,2013-11-20 20:00:00,
2013-11-20 12:05:00,40.9,26.9,30.34,NNW,329,3.0,10.0,57,0.00,,---,0.00,VWS V14.01,2013-11-20 20:05:00,
2013-11-20 12:10:00,41.2,25.4,30.34,NNE,33,3.0,8.0,53,0.00,,---,0.00,VWS V14.01,2013-11-20 20:10:00,
2013-11-20 12:15:00,41.4,25.1,30.34,NNW,343,6.0,10.0,52,0.00,,---,0.00,VWS V14.01,2013-11-20 20:15:00,
2013-11-20 12:20:00,41.5,26.1,30.34,East,85,3.0,8.0,54,0.00,,---,0.00,VWS V14.01,2013-11-20 20:20:00,
2013-11-20 12:25:00,41.5,27.0,30.34,North,359,3.0,8.0,56,0.00,,---,0.00,VWS V14.01,2013-11-20 20:25:00,
2013-11-20 12:30:00,41.4,26.9,30.34,NW,318,8.0,10.0,56,0.00,,---,0.00,VWS V14.01,2013-11-20 20:30:00,
2013-11-20 12:35:00,41.5,28.3,30.34,NNW,333,4.0,7.0,59,0.00,,---,0.00,VWS V14.01,2013-11-20 20:35:00,
2013-11-20 12:40:00,41.5,27.8,30.34,North,349,7.0,10.0,58,0.00,,---,0.00,VWS V14.01,2013-11-20 20:40:00,
2013-11-20 12:45:00,41.4,28.2,30.34,NW,304,2.0,13.0,59,0.00,,---,0.00,VWS V14.01,2013-11-20 20:45:00,
2013-11-20 12:50:00,41.5,28.7,30.34,WNW,300,1.0,6.0,60,0.00,,---,0.00,VWS V14.01,2013-11-20 20:50:00,
2013-11-20 12:55:00,41.4,27.8,30.34,WNW,289,5.0,10.0,58,0.00,,---,0.00,VWS V14.01,2013-11-20 20:55:00,
2013-11-20 13:00:00,41.2,27.6,30.34,West,259,2.0,12.0,58,0.00,,---,0.00,VWS V14.01,2013-11-20 21:00:00,
2013-11-20 13:05:00,41.3,27.6,30.34,NW,321,4.0,14.0,58,0.00,,---,0.00,VWS V14.01,2013-11-20 21:05:00,
2013-11-20 13:10:00,41.5,28.3,30.34,NW,326,4.0,14.0,59,0.00,,---,0.00,VWS V14.01,2013-11-20 21:10:00,
2013-11-20 13:15:00,41.4,27.8,30.35,NNW,339,3.0,11.0,58,0.00,,---,0.00,VWS V14.01,2013-11-20 21:15:00,
2013-11-20 13:20:00,41.4,27.8,30.34,WNW,298,6.0,14.0,58,0.00,,---,0.00,VWS V14.01,2013-11-20 21:20:00,
2013-11-20 13:25:00,41.2,28.0,30.35,NNE,32,3.0,13.0,59,0.00,,---,0.00,VWS V14.01,2013-11-20 21:25:00,
2013-11-20 13:30:00,41.3,28.1,30.35,NW,325,1.0,14.0,59,0.00,,---,0.00,VWS V14.01,2013-11-20 21:30:00,
2013-11-20 13:35:00,41.4,28.2,30.34,NW,323,2.0,9.0,59,0.00,,---,0.00,VWS V14.01,2013-11-20 21:35:00,
2013-11-20 13:40:00,41.6,28.4,30.35,WNW,285,3.0,11.0,59,0.00,,---,0.00,VWS V14.01,2013-11-20 21:40:00,
2013-11-20 13:45:00,41.7,28.0,30.35,NNW,334,2.0,9.0,58,0.00,,---,0.00,VWS V14.01,2013-11-20 21:45:00,
2013-11-20 13:50:00,41.9,28.6,30.35,NW,323,7.0,9.0,59,0.00,,---,0.00,VWS V14.01,2013-11-20 21:50:00,
2013-11-20 13:55:00,41.9,29.0,30.35,NNW,345,7.0,8.0,60,0.00,,---,0.00,VWS V14.01,2013-11-20 21:55:00,
2013-11-20 14:00:00,42.0,28.7,30.35,NNW,330,4.0,8.0,59,0.00,,---,0.00,VWS V14.01,2013-11-20 22:00:00,
2013-11-20 14:05:00,42.1,28.4,30.35,NNW,339,7.0,9.0,58,0.00,,---,0.00,VWS V14.01,2013-11-20 22:05:00,
2013-11-20 14:10:00,42.0,28.7,30.35,NW,321,3.0,10.0,59,0.00,,---,0.00,VWS V14.01,2013-11-20 22:10:00,
2013-11-20 14:15:00,42.2,28.9,30.35,NNW,339,1.0,8.0,59,0.00,,---,0.00,VWS V14.01,2013-11-20 22:15:00,
2013-11-20 14:20:00,42.4,28.7,30.35,NNW,340,3.0,7.0,58,0.00,,---,0.00,VWS V14.01,2013-11-20 22:20:00,
2013-11-20 14:25:00,42.3,28.6,30.35,NNW,336,2.0,11.0,58,0.00,,---,0.00,VWS V14.01,2013-11-20 22:25:00,
2013-11-20 14:30:00,42.4,29.1,30.35,North,349,3.0,8.0,59,0.00,,---,0.00,VWS V14.01,2013-11-20 22:30:00,
2013-11-20 14:35:00,42.4,28.3,30.35,North,2,4.0,9.0,57,0.00,,---,0.00,VWS V14.01,2013-11-20 22:35:00,
2013-11-20 14:40:00,42.4,27.8,30.35,NW,314,4.0,8.0,56,0.00,,---,0.00,VWS V14.01,2013-11-20 22:40:00,
2013-11-20 14:45:00,42.4,27.8,30.35,NNW,330,1.0,7.0,56,0.00,,---,0.00,VWS V14.01,2013-11-20 22:45:00,
2013-11-20 14:50:00,42.5,27.9,30.35,NNW,342,2.0,7.0,56,0.00,,---,0.00,VWS V14.01,2013-11-20 22:50:00,
2013-11-20 14:55:00,42.4,27.4,30.36,ENE,66,9.0,12.0,55,0.00,,---,0.00,VWS V14.01,2013-11-20 22:55:00,
2013-11-20 15:00:00,42.4,27.8,30.36,East,98,3.0,8.0,56,0.00,,---,0.00,VWS V14.01,2013-11-20 23:00:00,
2013-11-20 15:05:00,42.6,28.0,30.36,NNW,348,2.0,6.0,56,0.00,,---,0.00,VWS V14.01,2013-11-20 23:05:00,
2013-11-20 15:10:00,42.6,28.0,30.36,North,360,4.0,8.0,56,0.00,,---,0.00,VWS V14.01,2013-11-20 23:10:00,
2013-11-20 15:15:00,42.5,27.5,30.36,NE,53,4.0,7.0,55,0.00,,---,0.00,VWS V14.01,2013-11-20 23:15:00,
2013-11-20 15:20:00,42.5,27.9,30.37,NNW,347,1.0,7.0,56,0.00,,---,0.00,VWS V14.01,2013-11-20 23:20:00,
2013-11-20 15:25:00,42.6,28.5,30.37,NNE,12,2.0,5.0,57,0.00,,---,0.00,VWS V14.01,2013-11-20 23:25:00,
2013-11-20 15:30:00,42.5,28.4,30.37,East,86,3.0,5.0,57,0.00,,---,0.00,VWS V14.01,2013-11-20 23:30:00,
2013-11-20 15:35:00,42.3,28.2,30.37,NNW,340,2.0,10.0,57,0.00,,---,0.00,VWS V14.01,2013-11-20 23:35:00,
2013-11-20 15:40:00,42.0,28.3,30.37,NE,50,1.0,8.0,58,0.00,,---,0.00,VWS V14.01,2013-11-20 23:40:00,
2013-11-20 15:45:00,42.1,28.0,30.37,NW,323,4.0,7.0,57,0.00,,---,0.00,VWS V14.01,2013-11-20 23:45:00,
2013-11-20 15:50:00,41.8,28.1,30.37,NE,34,4.0,8.0,58,0.00,,---,0.00,VWS V14.01,2013-11-20 23:50:00,
2013-11-20 15:55:00,41.6,28.4,30.38,NNW,335,3.0,6.0,59,0.00,,---,0.00,VWS V14.01,2013-11-20 23:55:00,
2013-11-20 16:00:00,41.6,28.4,30.38,North,356,0.0,5.0,59,0.00,,---,0.00,VWS V14.01,2013-11-21 00:00:00,
2013-11-20 16:05:00,41.5,28.3,30.38,North,351,1.0,6.0,59,0.00,,---,0.00,VWS V14.01,2013-11-21 00:05:00,
2013-11-20 16:10:00,41.3,28.5,30.38,WNW,295,2.0,4.0,60,0.00,,---,0.00,VWS V14.01,2013-11-21 00:10:00,
2013-11-20 16:15:00,40.9,28.5,30.38,NNE,25,0.0,4.0,61,0.00,,---,0.00,VWS V14.01,2013-11-21 00:15:00,
2013-11-20 16:20:00,40.6,28.2,30.38,NNE,20,2.0,6.0,61,0.00,,---,0.00,VWS V14.01,2013-11-21 00:20:00,
2013-11-20 16:25:00,40.1,28.5,30.38,ENE,75,0.0,3.0,63,0.00,,---,0.00,VWS V14.01,2013-11-21 00:25:00,
2013-11-20 16:30:00,39.6,28.4,30.38,NNE,13,2.0,3.0,64,0.00,,---,0.00,VWS V14.01,2013-11-21 00:30:00,
2013-11-20 16:35:00,39.2,28.4,30.38,NE,49,3.0,3.0,65,0.00,,---,0.00,VWS V14.01,2013-11-21 00:35:00,
2013-11-20 16:40:00,39.0,28.6,30.38,ENE,72,1.0,5.0,66,0.00,,---,0.00,VWS V14.01,2013-11-21 00:40:00,
2013-11-20 16:45:00,38.7,28.3,30.38,North,11,0.0,4.0,66,0.00,,---,0.00,VWS V14.01,2013-11-21 00:45:00,
2013-11-20 16:50:00,38.4,28.0,30.38,North,9,1.0,3.0,66,0.00,,---,0.00,VWS V14.01,2013-11-21 00:50:00,
2013-11-20 16:55:00,38.1,28.1,30.39,ENE,68,3.0,3.0,67,0.00,,---,0.00,VWS V14.01,2013-11-21 00:55:00,
2013-11-20 17:00:00,37.9,27.9,30.39,NE,34,1.0,4.0,67,0.00,,---,0.00,VWS V14.01,2013-11-21 01:00:00,
2013-11-20 17:05:00,37.6,27.6,30.39,North,359,1.0,6.0,67,0.00,,---,0.00,VWS V14.01,2013-11-21 01:05:00,
2013-11-20 17:10:00,37.6,28.0,30.39,NNE,18,4.0,6.0,68,0.00,,---,0.00,VWS V14.01,2013-11-21 01:10:00,
2013-11-20 17:15:00,37.6,28.0,30.40,ENE,68,2.0,5.0,68,0.00,,---,0.00,VWS V14.01,2013-11-21 01:15:00,
2013-11-20 17:20:00,37.4,27.8,30.40,NE,38,2.0,5.0,68,0.00,,---,0.00,VWS V14.01,2013-11-21 01:20:00,
2013-11-20 17:25:00,37.3,27.7,30.40,ENE,75,2.0,4.0,68,0.00,,---,0.00,VWS V14.01,2013-11-21 01:25:00,
2013-11-20 17:30:00,37.3,28.1,30.40,NW,319,1.0,5.0,69,0.00,,---,0.00,VWS V14.01,2013-11-21 01:30:00,
2013-11-20 17:35:00,37.3,28.1,30.41,NE,34,2.0,4.0,69,0.00,,---,0.00,VWS V14.01,2013-11-21 01:35:00,
2013-11-20 17:40:00,37.1,28.2,30.41,NNE,27,4.0,6.0,70,0.00,,---,0.00,VWS V14.01,2013-11-21 01:40:00,
2013-11-20 17:45:00,37.2,28.7,30.41,East,96,2.0,4.0,71,0.00,,---,0.00,VWS V14.01,2013-11-21 01:45:00,
2013-11-20 17:50:00,37.2,28.7,30.41,NE,44,0.0,5.0,71,0.00,,---,0.00,VWS V14.01,2013-11-21 01:50:00,
2013-11-20 17:55:00,37.2,28.7,30.41,NE,42,2.0,5.0,71,0.00,,---,0.00,VWS V14.01,2013-11-21 01:55:00,
2013-11-20 18:00:00,37.1,28.6,30.41,East,91,3.0,4.0,71,0.00,,---,0.00,VWS V14.01,2013-11-21 02:00:00,
2013-11-20 18:05:00,37.1,28.6,30.41,NNW,330,1.0,4.0,71,0.00,,---,0.00,VWS V14.01,2013-11-21 02:05:00,
2013-11-20 18:10:00,36.9,28.4,30.41,ENE,61,3.0,4.0,71,0.00,,---,0.00,VWS V14.01,2013-11-21 02:10:00,
2013-11-20 18:15:00,36.8,28.3,30.41,ENE,71,3.0,6.0,71,0.00,,---,0.00,VWS V14.01,2013-11-21 02:15:00,
2013-11-20 18:20:00,36.8,28.6,30.42,East,96,0.0,4.0,72,0.00,,---,0.00,VWS V14.01,2013-11-21 02:20:00,
2013-11-20 18:25:00,36.6,28.4,30.42,NNW,344,1.0,4.0,72,0.00,,---,0.00,VWS V14.01,2013-11-21 02:25:00,
2013-11-20 18:30:00,36.5,28.7,30.42,North,7,2.0,4.0,73,0.00,,---,0.00,VWS V14.01,2013-11-21 02:30:00,
2013-11-20 18:35:00,36.6,28.8,30.42,NNE,23,2.0,4.0,73,0.00,,---,0.00,VWS V14.01,2013-11-21 02:35:00,
2013-11-20 18:40:00,36.6,28.8,30.42,NE,34,2.0,5.0,73,0.00,,---,0.00,VWS V14.01,2013-11-21 02:40:00,
2013-11-20 18:45:00,36.4,28.9,30.42,NNW,335,1.0,4.0,74,0.00,,---,0.00,VWS V14.01,2013-11-21 02:45:00,
2013-11-20 18:50:00,36.4,28.9,30.42,ENE,63,2.0,4.0,74,0.00,,---,0.00,VWS V14.01,2013-11-21 02:50:00,
2013-11-20 18:55:00,36.4,29.2,30.42,NNE,27,2.0,3.0,75,0.00,,---,0.00,VWS V14.01,2013-11-21 02:55:00,
2013-11-20 19:00:00,36.3,28.8,30.42,NE,44,3.0,4.0,74,0.00,,---,0.00,VWS V14.01,2013-11-21 03:00:00,
2013-11-20 19:05:00,36.1,29.0,30.42,ENE,75,0.0,3.0,75,0.00,,---,0.00,VWS V14.01,2013-11-21 03:05:00,
2013-11-20 19:10:00,35.9,29.1,30.42,East,94,1.0,2.0,76,0.00,,---,0.00,VWS V14.01,2013-11-21 03:10:00,
2013-11-20 19:15:00,35.8,29.6,30.42,NE,48,1.0,2.0,78,0.00,,---,0.00,VWS V14.01,2013-11-21 03:15:00,
2013-11-20 19:20:00,35.6,29.1,30.43,East,82,1.0,2.0,77,0.00,,---,0.00,VWS V14.01,2013-11-21 03:20:00,
2013-11-20 19:25:00,35.4,28.9,30.43,East,96,2.0,3.0,77,0.00,,---,0.00,VWS V14.01,2013-11-21 03:25:00,
2013-11-20 19:30:00,35.3,29.1,30.43,East,84,0.0,4.0,78,0.00,,---,0.00,VWS V14.01,2013-11-21 03:30:00,
2013-11-20 19:35:00,35.2,29.4,30.43,East,80,4.0,4.0,79,0.00,,---,0.00,VWS V14.01,2013-11-21 03:35:00,
2013-11-20 19:40:00,35.3,29.5,30.43,ENE,72,1.0,3.0,79,0.00,,---,0.00,VWS V14.01,2013-11-21 03:40:00,
2013-11-20 19:45:00,35.2,29.4,30.43,East,97,1.0,3.0,79,0.00,,---,0.00,VWS V14.01,2013-11-21 03:45:00,
2013-11-20 19:50:00,35.2,29.4,30.44,East,101,1.0,3.0,79,0.00,,---,0.00,VWS V14.01,2013-11-21 03:50:00,
2013-11-20 19:55:00,35.1,29.3,30.44,East,94,0.0,2.0,79,0.00,,---,0.00,VWS V14.01,2013-11-21 03:55:00,
2013-11-20 20:00:00,34.9,29.1,30.44,East,96,1.0,4.0,79,0.00,,---,0.00,VWS V14.01,2013-11-21 04:00:00,
2013-11-20 20:05:00,34.8,29.3,30.44,East,92,2.0,3.0,80,0.00,,---,0.00,VWS V14.01,2013-11-21 04:05:00,
2013-11-20 20:10:00,34.8,29.0,30.44,East,89,2.0,3.0,79,0.00,,---,0.00,VWS V14.01,2013-11-21 04:10:00,
2013-11-20 20:15:00,34.7,28.9,30.45,East,89,1.0,3.0,79,0.00,,---,0.00,VWS V14.01,2013-11-21 04:15:00,
2013-11-20 20:20:00,34.6,28.8,30.45,East,92,1.0,3.0,79,0.00,,---,0.00,VWS V14.01,2013-11-21 04:20:00,
2013-11-20 20:25:00,34.3,28.8,30.45,East,86,0.0,2.0,80,0.00,,---,0.00,VWS V14.01,2013-11-21 04:25:00,
2013-11-20 20:30:00,34.2,28.7,30.45,ESE,110,0.0,1.0,80,0.00,,---,0.00,VWS V14.01,2013-11-21 04:30:00,
2013-11-20 20:35:00,34.0,28.5,30.45,East,86,0.0,2.0,80,0.00,,---,0.00,VWS V14.01,2013-11-21 04:35:00,
2013-11-20 20:40:00,33.9,28.4,30.46,ENE,76,0.0,2.0,80,0.00,,---,0.00,VWS V14.01,2013-11-21 04:40:00,
2013-11-20 20:45:00,33.7,28.2,30.46,East,89,1.0,2.0,80,0.00,,---,0.00,VWS V14.01,2013-11-21 04:45:00,
2013-11-20 20:50:00,33.6,28.1,30.46,East,96,1.0,2.0,80,0.00,,---,0.00,VWS V14.01,2013-11-21 04:50:00,
2013-11-20 20:55:00,33.5,28.0,30.45,ESE,105,1.0,2.0,80,0.00,,---,0.00,VWS V14.01,2013-11-21 04:55:00,
2013-11-20 21:00:00,33.5,27.7,30.45,ENE,72,2.0,4.0,79,0.00,,---,0.00,VWS V14.01,2013-11-21 05:00:00,
2013-11-20 21:01:00,33.5,27.7,30.45,ENE,65,2.0,4.0,79,0.00,,---,0.00,VWS V14.01,2013-11-21 05:01:00,
2013-11-20 21:06:00,33.6,27.2,30.46,ENE,72,2.0,3.0,77,0.00,,---,0.00,VWS V14.01,2013-11-21 05:06:00,
2013-11-20 21:11:00,33.7,27.3,30.46,ENE,57,2.0,5.0,77,0.00,,---,0.00,VWS V14.01,2013-11-21 05:11:00,
2013-11-20 21:16:00,33.7,27.3,30.47,ENE,76,2.0,3.0,77,0.00,,---,0.00,VWS V14.01,2013-11-21 05:16:00,
2013-11-20 21:21:00,33.7,27.3,30.47,NE,52,1.0,3.0,77,0.00,,---,0.00,VWS V14.01,2013-11-21 05:21:00,
2013-11-20 21:26:00,33.6,27.5,30.47,NNE,31,1.0,2.0,78,0.00,,---,0.00,VWS V14.01,2013-11-21 05:26:00,
2013-11-20 21:31:00,33.5,27.7,30.47,ENE,59,1.0,3.0,79,0.00,,---,0.00,VWS V14.01,2013-11-21 05:31:00,
2013-11-20 21:36:00,33.5,27.1,30.47,ENE,59,2.0,4.0,77,0.00,,---,0.00,VWS V14.01,2013-11-21 05:36:00,
2013-11-20 21:41:00,33.5,27.1,30.47,ENE,64,2.0,3.0,77,0.00,,---,0.00,VWS V14.01,2013-11-21 05:41:00,
2013-11-20 21:46:00,33.5,27.1,30.47,NE,40,1.0,2.0,77,0.00,,---,0.00,VWS V14.01,2013-11-21 05:46:00,
2013-11-20 21:51:00,33.3,26.9,30.47,NNE,17,0.0,2.0,77,0.00,,---,0.00,VWS V14.01,2013-11-21 05:51:00,
2013-11-20 21:56:00,33.0,26.6,30.47,ENE,68,1.0,1.0,77,0.00,,---,0.00,VWS V14.01,2013-11-21 05:56:00,
2013-11-20 21:57:00,32.9,26.5,30.47,NNE,30,0.0,0.0,77,0.00,,---,0.00,VWS V14.01,2013-11-21 05:57:00,
2013-11-20 22:02:00,32.8,26.4,30.48,NNE,24,2.0,4.0,77,0.00,,---,0.00,VWS V14.01,2013-11-21 06:02:00,
2013-11-20 22:07:00,33.1,26.4,30.48,ENE,77,2.0,3.0,76,0.00,,---,0.00,VWS V14.01,2013-11-21 06:07:00,
2013-11-20 22:12:00,33.3,26.2,30.48,NNE,33,2.0,2.0,75,0.00,,---,0.00,VWS V14.01,2013-11-21 06:12:00,
2013-11-20 22:17:00,33.3,26.2,30.48,ENE,65,1.0,3.0,75,0.00,,---,0.00,VWS V14.01,2013-11-21 06:17:00,
2013-11-20 22:22:00,33.3,26.2,30.48,ENE,65,1.0,1.0,75,0.00,,---,0.00,VWS V14.01,2013-11-21 06:22:00,
2013-11-20 22:27:00,33.4,26.3,30.49,West,263,2.0,3.0,75,0.00,,---,0.00,VWS V14.01,2013-11-21 06:27:00,
2013-11-20 22:32:00,33.7,26.6,30.49,NE,45,2.0,5.0,75,0.00,,---,0.00,VWS V14.01,2013-11-21 06:32:00,
2013-11-20 22:37:00,33.9,26.5,30.49,NE,53,2.0,3.0,74,0.00,,---,0.00,VWS V14.01,2013-11-21 06:37:00,
2013-11-20 22:42:00,34.0,26.6,30.49,North,359,1.0,1.0,74,0.00,,---,0.00,VWS V14.01,2013-11-21 06:42:00,
2013-11-20 22:47:00,34.2,26.5,30.49,ENE,76,2.0,2.0,73,0.00,,---,0.00,VWS V14.01,2013-11-21 06:47:00,
2013-11-20 22:52:00,34.2,26.5,30.49,NE,54,2.0,5.0,73,0.00,,---,0.00,VWS V14.01,2013-11-21 06:52:00,
2013-11-20 22:57:00,34.2,26.5,30.49,NNE,12,2.0,2.0,73,0.00,,---,0.00,VWS V14.01,2013-11-21 06:57:00,
2013-11-20 23:02:00,34.2,26.5,30.50,NE,34,3.0,3.0,73,0.00,,---,0.00,VWS V14.01,2013-11-21 07:02:00,
2013-11-20 23:07:00,34.3,26.2,30.50,NE,56,4.0,5.0,72,0.00,,---,0.00,VWS V14.01,2013-11-21 07:07:00,
2013-11-20 23:12:00,34.3,26.2,30.50,NNE,28,2.0,2.0,72,0.00,,---,0.00,VWS V14.01,2013-11-21 07:12:00,
2013-11-20 23:17:00,34.1,26.4,30.50,East,82,2.0,3.0,73,0.00,,---,0.00,VWS V14.01,2013-11-21 07:17:00,
2013-11-20 23:22:00,33.9,26.5,30.50,NE,48,2.0,3.0,74,0.00,,---,0.00,VWS V14.01,2013-11-21 07:22:00,
2013-11-20 23:27:00,33.9,26.5,30.50,NE,52,3.0,3.0,74,0.00,,---,0.00,VWS V14.01,2013-11-21 07:27:00,
2013-11-20 23:32:00,33.9,26.5,30.50,ENE,67,3.0,3.0,74,0.00,,---,0.00,VWS V14.01,2013-11-21 07:32:00,
2013-11-20 23:37:00,33.9,26.5,30.50,ENE,69,1.0,2.0,74,0.00,,---,0.00,VWS V14.01,2013-11-21 07:37:00,
2013-11-20 23:42:00,34.0,26.9,30.51,NE,47,3.0,3.0,75,0.00,,---,0.00,VWS V14.01,2013-11-21 07:42:00,
2013-11-20 23:47:00,33.9,26.8,30.51,ENE,57,2.0,3.0,75,0.00,,---,0.00,VWS V14.01,2013-11-21 07:47:00,
2013-11-20 23:52:00,33.8,27.0,30.51,NNE,23,3.0,3.0,76,0.00,,---,0.00,VWS V14.01,2013-11-21 07:52:00,
2013-11-20 23:57:00,33.8,27.0,30.51,NNE,16,2.0,2.0,76,0.00,,---,0.00,VWS V14.01,2013-11-21 07:57:00,